Lexington, NC

12:06 PM EDT on July 23, 2017 (GMT -0400)
Davidson County

Weather History for KEXX - November, 2013

Change the Weather History Date:

Friday, November 29, 2013

  Actual Average (KINT) Record (KINT)
Temperature  
Mean Temperature 35 °F -  
Max Temperature 50 °F 54 °F 75 °F (1990)
Min Temperature 20 °F 36 °F 16 °F (1967)
Degree Days  
Heating Degree Days 30    
Moisture  
Dew Point 23 °F    
Average Humidity 68    
Maximum Humidity 100    
Minimum Humidity 36    
Precipitation  
Precipitation 0.00 in - - ()
Sea Level Pressure  
Sea Level Pressure 30.52 in    
Wind  
Wind Speed 1 mph (NE)    
Max Wind Speed 9 mph    
Max Gust Speed -    
Visibility 10 miles    
Events      
Averages and records for this station are not official NWS values.
T = Trace of Precipitation, MM = Missing Value Source: NWS Daily Summary

Daily Weather History Graph

Daily Weather History Graph

Search for Another Location

Airport or City:

Trip Planner

Search our weather history database for the weather conditions in past years. The results will help you decide how hot, cold, wet, or windy it might be!

Date:

Astronomy

Nov. 29, 2013 Rise Set
Actual Time 7:11 AM EST 5:07 PM EST
Civil Twilight 6:43 AM EST 5:35 PM EST
Nautical Twilight 6:11 AM EST 6:07 PM EST
Astronomical Twilight 5:40 AM EST 6:38 PM EST
Moon 3:21 AM EST (11/29) 2:46 PM EST (11/29)
Length of Visible Light 10h 52m
Length of Day
9h 56m
Waning Crescent, 14% of the Moon is Illuminated
Nov 29
Waning Crescent
Dec 2
New
Dec 9
First Quarter
Dec 17
Full
Dec 25
Last Quarter

Hourly Weather History & Observations

Time (EST) Temp. Windchill Dew Point Humidity Pressure Visibility Wind Dir Wind Speed Gust Speed Precip Events Conditions
12:15 AM 25.0 °F - 22.1 °F 89% 30.46 in 10.0 mi Calm Calm - N/A   Clear
12:35 AM 24.6 °F - 22.1 °F 90% 30.46 in 10.0 mi Calm Calm - N/A   Clear
12:55 AM 24.4 °F - 22.8 °F 94% 30.46 in 10.0 mi Calm Calm - N/A   Clear
1:15 AM 23.7 °F - 22.1 °F 94% 30.46 in 10.0 mi Calm Calm - N/A   Clear
1:35 AM 23.7 °F - 21.9 °F 93% 30.46 in 10.0 mi Calm Calm - N/A   Clear
1:55 AM 23.7 °F - 22.8 °F 96% 30.46 in 10.0 mi Calm Calm - N/A   Clear
2:15 AM 23.4 °F - 23.4 °F 100% 30.46 in 10.0 mi Calm Calm - N/A   Clear
2:35 AM 23.5 °F - 23.5 °F 100% 30.46 in 10.0 mi Calm Calm - N/A   Clear
2:55 AM 23.5 °F - 23.5 °F 100% 30.46 in 10.0 mi Calm Calm - N/A   Clear
3:15 AM 23.0 °F - 23.0 °F 100% 30.46 in 10.0 mi Calm Calm - N/A   Clear
3:35 AM 22.6 °F - 22.6 °F 100% 30.46 in 10.0 mi Calm Calm - N/A   Clear
3:55 AM 22.5 °F - 22.5 °F 100% 30.46 in 10.0 mi Calm Calm - N/A   Clear
4:15 AM 22.1 °F - 22.1 °F 100% 30.46 in 10.0 mi Calm Calm - N/A   Clear
4:35 AM 22.1 °F - 22.1 °F 100% 30.46 in 10.0 mi Calm Calm - N/A   Clear
4:55 AM 21.9 °F - 21.9 °F 100% 30.46 in 10.0 mi Calm Calm - N/A   Clear
5:15 AM 21.9 °F - 21.9 °F 100% 30.47 in 10.0 mi Calm Calm - N/A   Clear
5:35 AM 21.7 °F - 21.7 °F 100% 30.46 in 10.0 mi Calm Calm - N/A   Clear
5:55 AM 21.7 °F - 21.7 °F 100% 30.47 in 10.0 mi Calm Calm - N/A   Clear
6:15 AM 21.4 °F - 21.4 °F 100% 30.48 in 10.0 mi Calm Calm - N/A   Clear
6:35 AM 21.0 °F - 21.0 °F 100% 30.49 in 10.0 mi Calm Calm - N/A   Clear
6:55 AM 20.7 °F - 20.7 °F 100% 30.50 in 10.0 mi Calm Calm - N/A   Clear
7:15 AM 21.0 °F - 21.0 °F 100% 30.50 in 10.0 mi Calm Calm - N/A   Clear
7:35 AM 21.2 °F - 21.2 °F 100% 30.51 in 10.0 mi Calm Calm - N/A   Clear
7:55 AM 23.7 °F - 23.2 °F 98% 30.52 in 10.0 mi Calm Calm - N/A   Clear
8:15 AM 25.9 °F - 24.4 °F 94% 30.52 in 10.0 mi Calm Calm - N/A   Clear
8:35 AM 27.3 °F - 25.2 °F 92% 30.52 in 10.0 mi Calm Calm - N/A   Clear
8:55 AM 31.5 °F 28.1 °F 23.4 °F 72% 30.53 in 10.0 mi North 3.5 mph - N/A   Clear
9:15 AM 33.8 °F - 23.9 °F 67% 30.54 in 10.0 mi Calm Calm - N/A   Clear
9:35 AM 36.5 °F 32.7 °F 23.7 °F 60% 30.55 in 10.0 mi NNE 4.6 mph - N/A   Clear
9:55 AM 39.2 °F - 23.2 °F 53% 30.55 in 10.0 mi Calm Calm - N/A   Clear
10:15 AM 41.7 °F 36.7 °F 23.5 °F 49% 30.55 in 10.0 mi ENE 8.1 mph - N/A   Clear
10:35 AM 41.5 °F 35.9 °F 23.5 °F 49% 30.55 in 10.0 mi ENE 9.2 mph - N/A   Clear
10:55 AM 42.8 °F 38.6 °F 23.4 °F 46% 30.55 in 10.0 mi ENE 6.9 mph - N/A   Clear
11:15 AM 43.9 °F 41.3 °F 23.7 °F 45% 30.55 in 10.0 mi NE 4.6 mph - N/A   Clear
11:35 AM 44.8 °F 42.4 °F 23.5 °F 43% 30.54 in 10.0 mi ENE 4.6 mph - N/A   Clear
11:55 AM 46.9 °F - 23.7 °F 40% 30.53 in 10.0 mi NE 5.8 mph - N/A   Clear
12:15 PM 46.8 °F - 23.0 °F 39% 30.52 in 10.0 mi ENE 3.5 mph - N/A   Clear
12:35 PM 47.5 °F - 23.7 °F 39% 30.52 in 10.0 mi ENE 5.8 mph - N/A   Clear
12:55 PM 48.0 °F - 24.1 °F 39% 30.51 in 10.0 mi East 4.6 mph - N/A   Clear
1:15 PM 48.4 °F - 23.7 °F 38% 30.51 in 10.0 mi ENE 8.1 mph - N/A   Clear
1:35 PM 49.6 °F - 24.3 °F 37% 30.51 in 10.0 mi NNE 3.5 mph - N/A   Clear
1:55 PM 50.4 °F - 25.0 °F 37% 30.50 in 10.0 mi East 8.1 mph - N/A   Clear
2:15 PM 50.7 °F - 25.2 °F 37% 30.50 in 10.0 mi NE 8.1 mph - N/A   Clear
2:35 PM 50.0 °F - 24.6 °F 37% 30.50 in 10.0 mi East 5.8 mph - N/A   Clear
2:55 PM 49.8 °F - 23.7 °F 36% 30.50 in 10.0 mi ENE 3.5 mph - N/A   Clear
3:15 PM 49.8 °F - 24.1 °F 37% 30.50 in 10.0 mi Calm Calm - N/A   Clear
3:35 PM 49.6 °F - 24.8 °F 38% 30.50 in 10.0 mi ENE 6.9 mph - N/A   Clear
3:55 PM 49.3 °F - 24.3 °F 38% 30.51 in 10.0 mi ENE 5.8 mph - N/A   Clear
4:15 PM 48.2 °F - 23.5 °F 38% 30.51 in 10.0 mi ENE 4.6 mph - N/A   Clear
4:35 PM 47.1 °F - 23.0 °F 39% 30.51 in 10.0 mi NE 4.6 mph - N/A   Clear
4:55 PM 45.3 °F 43.0 °F 22.8 °F 41% 30.52 in 10.0 mi NE 4.6 mph - N/A   Clear
5:15 PM 44.4 °F 42.9 °F 23.0 °F 43% 30.53 in 10.0 mi NE 3.5 mph - N/A   Clear
5:35 PM 43.0 °F - 23.4 °F 46% 30.54 in 10.0 mi Calm Calm - N/A   Clear
5:55 PM 42.1 °F - 23.5 °F 48% 30.54 in 10.0 mi Calm Calm - N/A   Clear
6:15 PM 41.0 °F - 23.5 °F 50% 30.55 in 10.0 mi Calm Calm - N/A   Clear
6:35 PM 40.1 °F - 23.5 °F 52% 30.56 in 10.0 mi Calm Calm - N/A   Clear
6:55 PM 37.9 °F - 23.9 °F 57% 30.56 in 10.0 mi Calm Calm - N/A   Clear
7:15 PM 38.3 °F - 23.9 °F 56% 30.56 in 10.0 mi Calm Calm - N/A   Clear
7:35 PM 38.3 °F 35.9 °F 23.5 °F 55% 30.57 in 10.0 mi NNE 3.5 mph - N/A   Clear
7:55 PM 37.4 °F - 23.5 °F 57% 30.58 in 10.0 mi Calm Calm - N/A   Clear
8:15 PM 37.0 °F - 23.5 °F 58% 30.58 in 10.0 mi Calm Calm - N/A   Clear
8:35 PM 34.7 °F 31.8 °F 23.5 °F 64% 30.58 in 10.0 mi NNE 3.5 mph - N/A   Clear
8:55 PM 35.4 °F - 23.4 °F 62% 30.59 in 10.0 mi Calm Calm - N/A   Clear
9:15 PM 35.4 °F 32.6 °F 23.7 °F 62% 30.59 in 10.0 mi NNE 3.5 mph - N/A   Clear
9:35 PM 35.6 °F 32.8 °F 23.5 °F 62% 30.59 in 10.0 mi NNE 3.5 mph - N/A   Clear
9:55 PM 34.9 °F 32.0 °F 23.5 °F 63% 30.60 in 10.0 mi NNE 3.5 mph - N/A   Clear
10:15 PM 34.7 °F 31.8 °F 23.5 °F 64% 30.60 in 10.0 mi NNE 3.5 mph - N/A   Clear
10:35 PM 34.0 °F 31.0 °F 23.7 °F 66% 30.60 in 10.0 mi North 3.5 mph - N/A   Clear
10:55 PM 33.6 °F 30.6 °F 23.7 °F 67% 30.61 in 10.0 mi North 3.5 mph - N/A   Clear
11:15 PM 33.1 °F 30.0 °F 23.5 °F 68% 30.61 in 10.0 mi NNE 3.5 mph - N/A   Clear
11:35 PM 32.7 °F - 23.4 °F 68% 30.61 in 10.0 mi Calm Calm - N/A   Clear
11:55 PM 32.5 °F 29.3 °F 23.4 °F 69% 30.61 in 10.0 mi NE 3.5 mph - N/A   Clear